TimeEDT,TemperatureF,Dew PointF,Humidity,Sea Level PressureIn,VisibilityMPH,Wind Direction,Wind SpeedMPH,Gust SpeedMPH,PrecipitationIn,Events,Conditions,WindDirDegrees,DateUTC
12:15 AM,37.4,33.8,87,29.91,10.0,Calm,Calm,-,N/A,,Scattered Clouds,0,2013-03-27 04:15:00
12:35 AM,37.4,33.8,87,29.91,10.0,Calm,Calm,-,N/A,,Scattered Clouds,0,2013-03-27 04:35:00
12:55 AM,37.4,33.8,87,29.91,10.0,Calm,Calm,-,N/A,,Scattered Clouds,0,2013-03-27 04:55:00
1:15 AM,37.4,33.8,87,29.91,10.0,Calm,Calm,-,N/A,,Scattered Clouds,0,2013-03-27 05:15:00
1:35 AM,37.4,33.8,87,29.91,10.0,West,3.5,-,N/A,,Clear,280,2013-03-27 05:35:00
1:55 AM,37.4,33.8,87,29.91,10.0,West,4.6,-,N/A,,Clear,280,2013-03-27 05:55:00
2:15 AM,37.4,33.8,87,29.91,10.0,West,3.5,-,N/A,,Clear,280,2013-03-27 06:15:00
2:35 AM,37.4,33.8,87,29.91,10.0,Calm,Calm,-,N/A,,Clear,0,2013-03-27 06:35:00
2:55 AM,37.4,32.0,81,29.91,10.0,Calm,Calm,-,N/A,,Clear,0,2013-03-27 06:55:00
3:15 AM,33.8,32.0,93,29.91,10.0,Calm,Calm,-,N/A,,Clear,0,2013-03-27 07:15:00
3:35 AM,32.0,32.0,100,29.90,10.0,Calm,Calm,-,N/A,,Clear,0,2013-03-27 07:35:00
3:55 AM,33.8,32.0,93,29.90,10.0,Calm,Calm,-,N/A,,Clear,0,2013-03-27 07:55:00
4:15 AM,33.8,32.0,93,29.90,10.0,Calm,Calm,-,N/A,,Clear,0,2013-03-27 08:15:00
4:35 AM,35.6,32.0,87,29.91,10.0,West,3.5,-,N/A,,Clear,260,2013-03-27 08:35:00
4:55 AM,33.8,32.0,93,29.91,10.0,West,3.5,-,N/A,,Clear,270,2013-03-27 08:55:00
5:15 AM,35.6,32.0,87,29.92,10.0,WSW,3.5,-,N/A,,Clear,250,2013-03-27 09:15:00
5:35 AM,33.8,32.0,93,29.92,10.0,West,3.5,-,N/A,,Clear,270,2013-03-27 09:35:00
5:55 AM,33.8,32.0,93,29.92,10.0,WNW,3.5,-,N/A,,Clear,290,2013-03-27 09:55:00
6:15 AM,35.6,32.0,87,29.93,10.0,West,4.6,-,N/A,,Clear,270,2013-03-27 10:15:00
6:35 AM,35.6,32.0,87,29.93,10.0,West,3.5,-,N/A,,Clear,280,2013-03-27 10:35:00
6:55 AM,35.6,32.0,87,29.94,10.0,West,3.5,-,N/A,,Clear,270,2013-03-27 10:55:00
7:15 AM,35.6,32.0,87,29.94,10.0,West,4.6,-,N/A,,Clear,280,2013-03-27 11:15:00
7:35 AM,35.6,32.0,87,29.95,10.0,WNW,4.6,-,N/A,,Clear,290,2013-03-27 11:35:00
7:55 AM,37.4,32.0,81,29.96,10.0,West,5.8,-,N/A,,Clear,270,2013-03-27 11:55:00
8:15 AM,41.0,32.0,70,29.96,10.0,West,5.8,-,N/A,,Clear,280,2013-03-27 12:15:00
8:35 AM,41.0,32.0,70,29.96,10.0,WNW,5.8,-,N/A,,Clear,290,2013-03-27 12:35:00
8:55 AM,42.8,32.0,66,29.97,10.0,WNW,11.5,17.3,N/A,,Clear,300,2013-03-27 12:55:00
9:15 AM,42.8,32.0,66,29.97,10.0,WNW,9.2,-,N/A,,Clear,300,2013-03-27 13:15:00
9:35 AM,42.8,30.2,61,29.97,10.0,WNW,9.2,17.3,N/A,,Clear,290,2013-03-27 13:35:00
9:55 AM,44.6,30.2,57,29.97,10.0,WNW,11.5,16.1,N/A,,Clear,290,2013-03-27 13:55:00
10:15 AM,44.6,28.4,53,29.96,10.0,WNW,9.2,17.3,N/A,,Clear,300,2013-03-27 14:15:00
10:35 AM,46.4,28.4,50,29.96,10.0,West,10.4,18.4,N/A,,Clear,280,2013-03-27 14:35:00
10:55 AM,46.4,30.2,53,29.96,10.0,West,8.1,18.4,N/A,,Clear,280,2013-03-27 14:55:00
11:15 AM,46.4,30.2,53,29.96,10.0,West,9.2,19.6,N/A,,Scattered Clouds,280,2013-03-27 15:15:00
11:35 AM,48.2,30.2,50,29.96,10.0,West,12.7,18.4,N/A,,Scattered Clouds,260,2013-03-27 15:35:00
1:55 PM,48.2,26.6,43,29.93,10.0,WNW,9.2,21.9,N/A,,Scattered Clouds,300,2013-03-27 17:55:00
2:35 PM,48.2,26.6,43,29.93,10.0,WNW,12.7,18.4,N/A,,Scattered Clouds,290,2013-03-27 18:35:00
2:55 PM,50.0,26.6,40,29.93,10.0,NW,11.5,16.1,N/A,,Scattered Clouds,310,2013-03-27 18:55:00
3:35 PM,50.0,24.8,37,29.92,10.0,WNW,8.1,-,N/A,,Scattered Clouds,300,2013-03-27 19:35:00
3:55 PM,50.0,26.6,40,29.92,10.0,WNW,13.8,24.2,N/A,,Scattered Clouds,300,2013-03-27 19:55:00
4:15 PM,50.0,26.6,40,29.92,10.0,NW,8.1,18.4,N/A,,Scattered Clouds,310,2013-03-27 20:15:00
4:35 PM,50.0,26.6,40,29.92,10.0,WNW,10.4,17.3,N/A,,Scattered Clouds,290,2013-03-27 20:35:00
4:55 PM,50.0,26.6,40,29.93,10.0,NW,8.1,23.0,N/A,,Scattered Clouds,310,2013-03-27 20:55:00
5:15 PM,46.4,30.2,53,29.93,10.0,NW,4.6,18.4,N/A,,Scattered Clouds,310,2013-03-27 21:15:00
5:35 PM,50.0,28.4,43,29.93,10.0,WNW,6.9,-,N/A,,Scattered Clouds,290,2013-03-27 21:35:00
5:55 PM,44.6,32.0,61,29.96,10.0,North,8.1,24.2,N/A,,Mostly Cloudy,350,2013-03-27 21:55:00
6:15 PM,42.8,33.8,70,29.96,10.0,Calm,Calm,-,N/A,,Mostly Cloudy,0,2013-03-27 22:15:00
6:35 PM,44.6,32.0,61,29.96,10.0,Calm,Calm,-,N/A,,Clear,0,2013-03-27 22:35:00
6:55 PM,44.6,32.0,61,29.96,10.0,North,4.6,-,N/A,,Scattered Clouds,350,2013-03-27 22:55:00
7:15 PM,44.6,32.0,61,29.97,10.0,Calm,Calm,-,N/A,,Mostly Cloudy,0,2013-03-27 23:15:00
7:35 PM,44.6,32.0,61,29.98,10.0,Calm,Calm,-,N/A,,Scattered Clouds,0,2013-03-27 23:35:00
7:55 PM,44.6,32.0,61,29.98,10.0,Calm,Calm,-,N/A,,Scattered Clouds,0,2013-03-27 23:55:00
8:15 PM,44.6,32.0,61,29.99,10.0,WNW,3.5,-,N/A,,Scattered Clouds,300,2013-03-28 00:15:00
8:35 PM,44.6,32.0,61,29.99,10.0,North,4.6,-,N/A,,Mostly Cloudy,350,2013-03-28 00:35:00
8:55 PM,42.8,32.0,66,30.00,10.0,NNW,5.8,-,N/A,,Scattered Clouds,330,2013-03-28 00:55:00
9:15 PM,42.8,32.0,66,30.01,10.0,Calm,Calm,-,N/A,,Scattered Clouds,0,2013-03-28 01:15:00
9:35 PM,42.8,32.0,66,30.01,10.0,WNW,3.5,-,N/A,,Clear,290,2013-03-28 01:35:00
9:55 PM,42.8,32.0,66,30.02,10.0,West,4.6,-,N/A,,Clear,260,2013-03-28 01:55:00
10:15 PM,42.8,30.2,61,30.02,10.0,West,4.6,-,N/A,,Scattered Clouds,280,2013-03-28 02:15:00
10:35 PM,41.0,30.2,65,30.02,10.0,WNW,4.6,-,N/A,,Clear,290,2013-03-28 02:35:00
10:55 PM,41.0,30.2,65,30.03,10.0,WNW,4.6,-,N/A,,Clear,300,2013-03-28 02:55:00
11:15 PM,41.0,30.2,65,30.03,10.0,Calm,Calm,-,N/A,,Scattered Clouds,0,2013-03-28 03:15:00
11:35 PM,39.2,30.2,70,30.03,10.0,West,4.6,-,N/A,,Mostly Cloudy,280,2013-03-28 03:35:00
11:55 PM,39.2,30.2,70,30.03,10.0,WNW,3.5,-,N/A,,Scattered Clouds,290,2013-03-28 03:55:00